Location: Bazinghen
(50.8246°N, 1.6616°E)
Time: 19:54:33
(UTC+00:00)

DMSP B5C-06 - Pass Details

Date: 29 May 2022
Orbit: 773 x 823 km, 98.4° (Epoch: 29 June)

Event Time Altitude Azimuth Distance (km) Brightness Sun altitude
Rises 20:38:20 0° 2° (N) 3,331 9.0 -6.0°
Reaches altitude 10° 20:42:28 10° 330° (NNW) 2,407 9.2 -6.5°
Maximum altitude 20:44:02 11° 312° (NW) 2,315 9.2 -6.6°
Drops below altitude 10° 20:45:37 10° 295° (WNW) 2,411 8.9 -6.8°
Sets 20:49:48 0° 263° (W) 3,348 8.8 -7.3°
